Meteopurmerend
purmerend
Purmerend - Baaienwijk



My webcam  My webcam


waarschuwing voor Onweer Meer informatie blitzortung!


Regen radar Meer informatie rain snow radar


Bezoek onze andere website:

CandyAppleRed WebdesignWebdesign Purmerend Candy Apple Red

MeteopurmerendBlog

Template documentation
and downloads



Onweer van: 19-06-2019 10:00 tot: 23:00 waarschuwing voor: Onweer niveau: Geel info button
Enkele onweersbuien, mogelijk met hagel en windstoten tot ca. 75 km/uur.Verkeer en buitenactiviteiten kunnen hinder ondervinden.Mijd open water en open gebied, schuil niet onder bomen.Volg weerberichten en waarschuwingen.

15 daagse weersverwachting Leonding (AT)

  • Overzicht
  • Per uur
  • 15 dagen
  • Extra
  • Vergelijk
  • Kaarten
  • Dagkaart
  • Meer »
  • Info
  • Statistieken
  • Directe link
    Temp 6h Neerslag Wind  
 05:03     21:07    Daglengte: 16:04 Vandaag
14:00
29°
 
1
20:00
26°
 
1
 05:03     21:07    Daglengte: 16:04 Morgen
02:00
19°
 
2
08:00
21°
 
1
14:00
30°
 
2
20:00
25°
2.9 mm
2
warningclass
 05:03     21:07    Daglengte: 16:04 Vrijdag 21 Jun
02:00
20°
1.8 mm
2
08:00
19°
 
3
14:00
24°
10.7 mm
2
20:00
22°
 
2
 05:04     21:07    Daglengte: 16:03 Zaterdag 22 Jun
02:00
18°
13.3 mm
2
08:00
19°
7.9 mm
4
warningclass
Locatie info
Region: Oberösterreich
Latitude: 48.2792°N
Longitude: 14.2492°E
289 masl
Postcode: 4060
Temp/Neerslag /Baro Onweer/Dauwpunt
    Temp Baro 1h Neerslag Dauwpunt Wind UV Bewolking  
 05:03     21:07    Daglengte: 16:04 Vandaag
13:00
28°
1011.6 hPa   15.8°
1
Windvlaag: 2.4 m/s
65%
14:00
29°
Voelt als: 28.8°
1011.1 hPa   14.8°
1
Windvlaag: 1.6 m/s
67%
15:00
29°
Voelt als: 29.0°
1010.8 hPa   14.4°
2
Windvlaag: 1.5 m/s
62%
16:00
29°
Voelt als: 29.1°
1010.2 hPa
11%
14.7°
2
Windvlaag: 0.8 m/s
54%
17:00
29°
Voelt als: 28.6°
1010.0 hPa
14%
14.8°
2
Windvlaag: -0.2 m/s
37%
18:00
28°
Voelt als: 28.2°
1009.8 hPa
21%
14.5°
2
Windvlaag: -1.6 m/s
44%
19:00
28°
Voelt als: 27.5°
1009.9 hPa
15%
14.1°
2
Windvlaag: -1.3 m/s
58%
20:00
26°
1009.8 hPa
13%
13.8°
1
Windvlaag: -1.5 m/s
17%
21:00
25°
1010.3 hPa
13%
15.5°
1
Windvlaag: -0.9 m/s
26%
22:00
23°
1010.5 hPa
16%
16.2°
2
Windvlaag: -0.8 m/s
11%
23:00
22°
1011.0 hPa
13%
16.1°
2
Windvlaag: -1 m/s
3%
 05:03     21:07    Daglengte: 16:04 Morgen
00:00
21°
1011.2 hPa
13%
15.9°
2
Windvlaag: -1.1 m/s
5%
01:00
20°
1011.2 hPa
13%
15.7°
2
Windvlaag: -1 m/s
3%
02:00
19°
1011.3 hPa
13%
15.7°
2
Windvlaag: -0.7 m/s
0%
03:00
18°
1011.2 hPa
13%
16.1°
2
Windvlaag: -1.3 m/s
0%
04:00
18°
1011.4 hPa
13%
16.0°
2
Windvlaag: -1.3 m/s
0%
05:00
17°
1011.5 hPa
13%
15.6°
1
Windvlaag: -1.3 m/s
0%
06:00
17°
1011.9 hPa
13%
15.7°
1
Windvlaag: -1.3 m/s
5%
07:00
19°
1012.1 hPa
13%
16.2°
1
Windvlaag: -1.2 m/s
1%
08:00
21°
1012.2 hPa
13%
16.7°
1
Windvlaag: 0.1 m/s
22%
09:00
23°
1012.1 hPa
13%
16.2°
1
Windvlaag: 1.3 m/s
5%
10:00
25°
1011.7 hPa
13%
15.5°
2
Windvlaag: 4.1 m/s
7%
11:00
27°
1011.6 hPa
15%
15.0°
3
Windvlaag: 2.7 m/s
12%
12:00
28°
1011.3 hPa
27%
15.0°
3
Windvlaag: 3 m/s
10%
13:00
29°
Voelt als: 28.8°
1010.9 hPa
77%
14.9°
3
Windvlaag: 3.1 m/s
2%
14:00
30°
Voelt als: 29.1°
1010.4 hPa
78%
13.5°
2
Windvlaag: 2.9 m/s
8%
15:00
30°
Voelt als: 29.0°
1010.0 hPa
73%
12.6°
2
Windvlaag: 2.3 m/s
0%
16:00
30°
Voelt als: 28.9°
1009.7 hPa
78%
11.5°
2
Windvlaag: -0.3 m/s
3%
17:00
29°
Voelt als: 28.3°
1009.8 hPa
78%
10.6°
2
Windvlaag: -1.4 m/s
8%
18:00
29°
Voelt als: 27.9°
1010.0 hPa
78%
10.0°
2
Windvlaag: -2.7 m/s
27%
19:00
26°
Voelt als: 26.1°
1010.6 hPa 1.8 mm
78%
8.0°
2
Windvlaag: -2.5 m/s
61% warningclass
20:00
25°
1011.1 hPa 1.1 mm
82%
11.8°
2
Windvlaag: 0.3 m/s
27% warningclass
21:00
23°
1011.6 hPa
75%
14.6°
3
Windvlaag: 1.3 m/s
43%
22:00
22°
1012.1 hPa
82%
16.5°
3
Windvlaag: -1.8 m/s
33%
23:00
22°
1012.3 hPa
76%
18.1°
3
Windvlaag: -2.5 m/s
27%
 05:03     21:07    Daglengte: 16:04 Vrijdag 21 Jun
00:00
21°
1012.8 hPa
54%
18.6°
2
Windvlaag: -2.3 m/s
16%
01:00
21°
1013.4 hPa 1.8 mm
78%
18.8°
2
Windvlaag: -1.8 m/s
49%
02:00
20°
1013.7 hPa
79%
18.4°
2
Windvlaag: -0.2 m/s
35%
03:00
19°
1014.0 hPa
26%
17.9°
2
Windvlaag: 2 m/s
13%
04:00
19°
1014.3 hPa
30%
17.8°
2
Windvlaag: 0.9 m/s
18%
05:00
19°
1014.6 hPa
22%
17.4°
2
Windvlaag: 0.7 m/s
18%
06:00
19°
1014.9 hPa
16%
17.5°
2
Windvlaag: 1.2 m/s
15%
07:00
19°
1015.3 hPa
14%
17.1°
2
Windvlaag: 0.7 m/s
17%
08:00
19°
1015.8 hPa
14%
17.0°
3
Windvlaag: -0.3 m/s
35%
09:00
20°
1016.2 hPa
14%
17.4°
3
Windvlaag: -1 m/s
52%
10:00
21°
1016.4 hPa
14%
17.4°
3
Windvlaag: -1.2 m/s
37%
11:00
22°
1017.0 hPa 4.3 mm
21%
15.2°
3
Windvlaag: -1 m/s
81%
12:00
22°
1017.0 hPa 3.8 mm
25%
14.4°
3
Windvlaag: -0.3 m/s
84%
13:00
23°
1016.8 hPa 2.6 mm
83%
14.5°
3
Windvlaag: 0.2 m/s
53%
14:00
24°
1016.2 hPa
91%
14.5°
2
Windvlaag: -0 m/s
37%
15:00
25°
1016.0 hPa
92%
13.6°
2
Windvlaag: -0.1 m/s
39%
16:00
25°
1015.5 hPa
89%
12.9°
2
Windvlaag: 0 m/s
26%
17:00
25°
1015.5 hPa
82%
13.6°
2
Windvlaag: 0.9 m/s
24%
18:00
23°
1015.3 hPa
96%
16.3°
3
Windvlaag: 4.8 m/s
30%
19:00
22°
1015.6 hPa
90%
16.6°
2
Windvlaag: 5.1 m/s
53%
20:00
22°
1016.0 hPa
86%
16.2°
2
Windvlaag: 3.6 m/s
61%
21:00
21°
1016.7 hPa
87%
16.4°
2
Windvlaag: 1 m/s
50%
22:00
20°
1017.5 hPa 2.6 mm
97%
16.2°
2
Windvlaag: 1 m/s
62%
23:00
19°
1017.5 hPa 2.6 mm
100%
16.2°
2
Windvlaag: 0.6 m/s
44%
 05:04     21:07    Daglengte: 16:03 Zaterdag 22 Jun
00:00
19°
1017.7 hPa 2.6 mm
94%
15.3°
2
Windvlaag: 0.6 m/s
26%
01:00
18°
1017.6 hPa 2.7 mm
100%
14.7°
2
Windvlaag: -0.2 m/s
26%
02:00
18°
1017.4 hPa 2.8 mm
99%
14.3°
2
Windvlaag: -0.8 m/s
49%
03:00
17°
1017.4 hPa 2.8 mm
86%
14.1°
2
Windvlaag: -1 m/s
67%
04:00
17°
1017.3 hPa
85%
14.3°
2
Windvlaag: -0.9 m/s
59%
05:00
17°
1017.4 hPa
90%
13.9°
2
Windvlaag: -0.4 m/s
79%
06:00
17°
1017.5 hPa 2.6 mm
97%
13.6°
2
Windvlaag: 0.4 m/s
83%
07:00
18°
1018.0 hPa 2.6 mm
95%
13.6°
3
Windvlaag: 0.1 m/s
81%
08:00
19°
1018.3 hPa
87%
14.1°
4
Windvlaag: 1.1 m/s
71%
09:00
20°
1018.0 hPa
89%
14.5°
3
Windvlaag: 6.8 m/s
74%
10:00
20°
1017.7 hPa 2.9 mm
100%
13.7°
3
Windvlaag: 4.8 m/s
80% warningclass
11:00
21°
1017.6 hPa 2.9 mm
99%
13.7°
4
Windvlaag: 4.9 m/s
63% warningclass
12:00
22°
1017.2 hPa
95%
14.2°
4
Windvlaag: 5.6 m/s
70%
Temp/Neerslag /Baro Onweer/Dauwpunt
    Temp Baro Neerslag Dauwpunt Wind Bewolking  
 05:03     21:07    Daglengte: 16:04 Vandaag
14:00
29°
Voelt als: 28.8°
1011.1 hPa   14.8°
1
67%
17:00
29°
Voelt als: 28.6°
1010.0 hPa   14.8°
2
37%
20:00
26°
1009.8 hPa   13.8°
1
17%
23:00
22°
1011.0 hPa   16.1°
2
3%
 05:03     21:07    Daglengte: 16:04 Morgen
02:00
19°
1011.3 hPa   15.7°
2
0%
05:00
17°
1011.5 hPa   15.6°
1
0%
08:00
21°
1012.2 hPa   16.7°
1
22%
11:00
27°
1011.6 hPa   15.0°
3
12%
14:00
30°
Voelt als: 29.1°
1010.4 hPa   13.5°
2
8%
17:00
29°
Voelt als: 28.3°
1009.8 hPa   10.6°
2
8%
20:00
25°
1011.1 hPa 2.9 mm 11.8°
2
27% warningclass
23:00
22°
1012.3 hPa   18.1°
3
27%
 05:03     21:07    Daglengte: 16:04 Vrijdag 21 Jun
02:00
20°
1013.7 hPa 1.8 mm 18.4°
2
35%
05:00
19°
1014.6 hPa   17.4°
2
18%
08:00
19°
1015.8 hPa   17.0°
3
35%
11:00
22°
1017.0 hPa 4.3 mm 15.2°
3
81%
14:00
24°
1016.2 hPa 6.4 mm 14.5°
2
37%
17:00
25°
1015.5 hPa   13.6°
2
24%
20:00
22°
1016.0 hPa   16.2°
2
61%
23:00
19°
1017.5 hPa 5.3 mm 16.2°
2
44%
 05:04     21:07    Daglengte: 16:03 Zaterdag 22 Jun
02:00
18°
1017.4 hPa 8.1 mm 14.3°
2
49%
05:00
17°
1017.4 hPa 2.8 mm 13.9°
2
79%
08:00
19°
1018.3 hPa 5.2 mm 14.1°
4
71% warningclass
11:00
21°
1017.6 hPa 5.8 mm 13.7°
4
63% warningclass
14:00
24°
1016.3 hPa 7.6 mm 15.1°
6
60% warningclass
17:00
22°
1013.7 hPa 20.5 mm 19.4°
4
1%
20:00
19°
1014.2 hPa 27.8 mm 17.6°
3
1%
23:00
18°
1015.6 hPa 31.9 mm 17.1°
2
1%
 05:04     21:07    Daglengte: 16:03 Zondag 23 Jun
02:00
17°
1015.7 hPa 39.6 mm 16.8°
1
1%
05:00
16°
1015.9 hPa 51.9 mm 16.1°
2
1%
08:00
16°
1017.1 hPa 58.3 mm 15.6°
3
1%
11:00
16°
1018.0 hPa 60.9 mm 15.8°
3
1%
14:00
17°
1018.4 hPa 63.4 mm 16.5°
1
1%
17:00
19°
1018.4 hPa 63.8 mm 17.0°
1
1%
20:00
19°
1019.6 hPa 64.2 mm 16.7°
2
1%
23:00
15°
1021.9 hPa 64.2 mm 13.6°
1
0%
 05:04     21:08    Daglengte: 16:04 Maandag 24 Jun
02:00
15°
1022.5 hPa 64.2 mm 14.0°
2
1%
05:00
14°
1022.7 hPa 64.2 mm 12.6°
0
0%
08:00
18°
1023.5 hPa 64.2 mm 15.4°
1
0%
11:00
22°
1023.2 hPa 64.2 mm 16.7°
2
0%
14:00
25°
1022.4 hPa 64.2 mm 18.0°
2
0%
17:00
26°
1022.2 hPa 64.2 mm 18.5°
2
0%
20:00
23°
1023.1 hPa 64.2 mm 19.5°
2
0%
23:00
18°
1025.3 hPa 64.2 mm 17.1°
3
1%
 05:05     21:08    Daglengte: 16:03 Dinsdag 25 Jun
02:00
17°
1025.4 hPa 64.2 mm 16.3°
2
1%
05:00
15°
1025.0 hPa 64.2 mm 14.4°
3
1%
08:00
19°
1024.9 hPa 64.2 mm 14.6°
3
0%
11:00
23°
1024.3 hPa 64.2 mm 15.3°
4
0%
14:00
26°
1023.2 hPa 64.2 mm 16.5°
4
0%
17:00
26°
1022.6 hPa 64.2 mm 19.0°
5
0%
20:00
22°
1023.3 hPa 64.2 mm 17.7°
4
0%
23:00
18°
1025.2 hPa 64.2 mm 16.2°
3
0%
 05:05     21:08    Daglengte: 16:03 Woensdag 26 Jun
02:00
17°
1024.7 hPa 64.2 mm 15.8°
3
0%
05:00
16°
1024.0 hPa 64.2 mm 14.9°
3
0%
08:00
20°
1023.6 hPa 64.2 mm 16.7°
3
0%
11:00
25°
1022.6 hPa   19.2°
4
0%
14:00
28°
1021.3 hPa 128.4 mm 20.2°
4
0%
20:00
24°
1020.8 hPa 128.4 mm 19.9°
3
0%
 05:06     21:08    Daglengte: 16:02 Donderdag 27 Jun
02:00
19°
1021.8 hPa 128.4 mm 17.3°
3
0%
08:00
22°
1020.2 hPa 128.4 mm 18.9°
4
0%
14:00
31°
1017.8 hPa 128.4 mm 21.7°
4
0%
20:00
27°
1016.3 hPa 128.4 mm 22.1°
3
0%
 05:06     21:07    Daglengte: 16:01 Vrijdag 28 Jun
02:00
20°
1017.4 hPa 128.4 mm 16.3°
2
0%
08:00
23°
1017.0 hPa 128.4 mm 18.7°
0
0%
14:00
31°
1015.8 hPa 128.4 mm 23.6°
3
0%
20:00
28°
1015.8 hPa 128.4 mm 24.2°
2
0%
 05:07     21:07    Daglengte: 16:00 Zaterdag 29 Jun
02:00
23°
1018.3 hPa 130.9 mm 21.4°
2
0%
08:00
22°
1014.3 hPa 0.5 mm 17.4°
0
25%
14:00
29°
1012.9 hPa 0.4 mm 16.9°
1
21%
20:00
25°
1012.9 hPa 0.5 mm 19.3°
1
30%
 05:07     21:07    Daglengte: 16:00 Zondag 30 Jun
02:00
17°
1014.3 hPa 0.2 mm 15.4°
1
38%
08:00
21°
1014.3 hPa 0.4 mm 16.7°
0
29%
14:00
28°
1012.8 hPa 0.8 mm 16.9°
1
36%
20:00
24°
1012.8 hPa 2.3 mm 19.5°
1
45%
 05:08     21:07    Daglengte: 15:59 Maandag 01 Jul
02:00
17°
1014.2 hPa 1.6 mm 15.7°
1
48%
08:00
20°
1014.3 hPa 1.4 mm 17.0°
1
37%
14:00
26°
1012.8 hPa 1.3 mm 16.5°
2
38%
20:00
22°
1012.9 hPa 1.6 mm 18.1°
1
46%
 05:08     21:07    Daglengte: 15:59 Dinsdag 02 Jul
02:00
16°
1014.5 hPa 2.0 mm 14.4°
1
43%
08:00
18°
1014.8 hPa 1.6 mm 15.3°
2
40%
14:00
25°
1013.5 hPa 0.8 mm 14.7°
2
34%
20:00
21°
1013.6 hPa 1.3 mm 16.9°
1
45%
 05:09     21:06    Daglengte: 15:57 Woensdag 03 Jul
02:00
14°
1015.3 hPa 0.5 mm 13.0°
2
37%
08:00
17°
1015.9 hPa 0.6 mm 14.2°
2
48%
14:00
23°
1015.3 hPa 1.6 mm 14.5°
2
44%
20:00
20°
1015.5 hPa 1.8 mm 15.8°
1
42%
 05:10     21:06    Daglengte: 15:56 Donderdag 04 Jul
02:00
13°
1016.9 hPa 1.5 mm 11.9°
1
44%
08:00
17°
1017.0 hPa 2.8 mm 13.3°
1
34%
  CAPE Lifted Index Hail Supercell Tornado SRH 3km CL BTM PRES CL TOP PRES Swiss DWD icon SMHI TS
 05:03     21:07    Daglengte: 16:04 Vandaag
13:00 991 J/kg -4.2 K 0 % 0 % 0 % 0 m²/s² 0 0 -1.74 3
14:00 1064 J/kg -4.4 K 0 % 0 % 0 % 0 m²/s² 0 0 -2.96 3
15:00 872 J/kg -4.2 K 0 % 0 % 0 % 0 m²/s² 0 0 -3.09 3
16:00 820 J/kg -3.9 K 0 % 0 % 0 % 0 m²/s² 0 0 -2.73 3
17:00 0 J/kg 1.4 K 0 % 0 % 0 % 0 m²/s² 0 0 2.63 3
18:00 2 J/kg 1.2 K 0 % 0 % 0 % 0 m²/s² 0 0 1.86 3
19:00 0 J/kg 1.5 K 0 % 0 % 0 % 0 m²/s² 0 0 3 3
20:00 0 J/kg 1.3 K 0 % 0 % 0 % 0 m²/s² 0 0 3.76 3
21:00 0 J/kg 0.5 K 0 % 0 % 0 % 0 m²/s² 0 0 2.9 3
22:00 0 J/kg -0.5 K 0 % 0 % 0 % 0 m²/s² 0 0 2.35 2
23:00 0 J/kg -1.1 K 0 % 0 % 0 % 0 m²/s² 0 0 2.65 1
 05:03     21:07    Daglengte: 16:04 Morgen
00:00 0 J/kg -1.4 K 0 % 0 % 0 % 0 m²/s² 0 0 2.74 3
01:00 0 J/kg -0.4 K 0 % 0 % 0 % 0 m²/s² 0 0 3.86 3
02:00 0 J/kg 0.3 K 0 % 0 % 0 % 0 m²/s² 0 0 4.32 1
03:00 0 J/kg -0.4 K 0 % 0 % 0 % 0 m²/s² 0 0 3.95 1
04:00 0 J/kg -1.0 K 0 % 0 % 0 % 0 m²/s² 0 0 3.5 2
05:00 0 J/kg -1.2 K 0 % 0 % 0 % 0 m²/s² 0 0 2.73 1
06:00 0 J/kg -1.4 K 0 % 0 % 0 % 0 m²/s² 0 0 2.23 3
07:00 0 J/kg -1.4 K 0 % 0 % 0 % 0 m²/s² 0 0 1.96 0
08:00 0 J/kg -1.5 K 0 % 0 % 0 % 0 m²/s² 0 0 1.68 3
09:00 0 J/kg -1.5 K 0 % 0 % 0 % 0 m²/s² 0 0 1.86 0
10:00 89 J/kg -1.3 K 0 % 0 % 0 % 0 m²/s² 0 0 2.24 0
11:00 471 J/kg -2.2 K 0 % 0 % 0 % 0 m²/s² 0 0 1.34 0
12:00 739 J/kg -2.9 K 0 % 0 % 0 % 0 m²/s² 0 0 0.76 0
13:00 931 J/kg -3.7 K 0 % 0 % 0 % 0 m²/s² 0 0 -0.49 1
14:00 1125 J/kg -4.0 K 0 % 0 % 0 % 0 m²/s² 0 0 -1.96 1
15:00 1167 J/kg -4.0 K 0 % 0 % 0 % 0 m²/s² 0 0 -2.14 0
16:00 1145 J/kg -3.9 K 0 % 0 % 0 % 0 m²/s² 0 0 -1.71 80
17:00 1308 J/kg -4.6 K 0 % 0 % 0 % 0 m²/s² 0 0 -3.16 80
18:00 1317 J/kg -5.1 K 0 % 0 % 0 % 0 m²/s² 0 0 -4.14 3
19:00 1667 J/kg -5.6 K 0 % 0 % 0 % 0 m²/s² 0 0 -4.58 95
20:00 1558 J/kg -5.7 K 0 % 0 % 0 % 0 m²/s² 0 0 -5.4 81
21:00 120 J/kg -2.4 K 0 % 0 % 0 % 0 m²/s² 0 0 -2.19 3
22:00 0 J/kg -0.9 K 0 % 0 % 0 % 0 m²/s² 0 0 -0.18 80
23:00 0 J/kg -0.1 K 0 % 0 % 0 % 0 m²/s² 0 0 1.16 3
 05:03     21:07    Daglengte: 16:04 Vrijdag 21 Jun
00:00 3 J/kg 0.3 K 0 % 0 % 0 % 0 m²/s² 0 0 1.2 2
01:00 1 J/kg -0.5 K 0 % 0 % 0 % 0 m²/s² 0 0 -0.02 80
02:00 0 J/kg -0.2 K 0 % 0 % 0 % 0 m²/s² 0 0 0.34 80
03:00 0 J/kg 0.0 K 0 % 0 % 0 % 0 m²/s² 0 0 0.87 2
04:00 0 J/kg 1.0 K 0 % 0 % 0 % 0 m²/s² 0 0 2.44 2
05:00 0 J/kg 0.8 K 0 % 0 % 0 % 0 m²/s² 0 0 2.03 2
06:00 0 J/kg 1.1 K 0 % 0 % 0 % 0 m²/s² 0 0 2.33 2
07:00 0 J/kg 1.1 K 0 % 0 % 0 % 0 m²/s² 0 0 2 2
08:00 0 J/kg 0.8 K 0 % 0 % 0 % 0 m²/s² 0 0 1.55 2
09:00 30 J/kg -0.4 K 0 % 0 % 0 % 0 m²/s² 0 0 0.41 3
10:00 215 J/kg -1.3 K 0 % 0 % 0 % 0 m²/s² 0 0 -0.55 2
11:00 402 J/kg -1.6 K 0 % 0 % 0 % 0 m²/s² 0 0 -0.64 3
12:00 557 J/kg -2.1 K 0 % 0 % 0 % 0 m²/s² 0 0 -0.87 3
13:00 624 J/kg -2.5 K 0 % 0 % 0 % 0 m²/s² 0 0 -0.88 3
14:00 607 J/kg -2.5 K 0 % 0 % 0 % 0 m²/s² 0 0 -0.58 2
15:00 483 J/kg -2.1 K 0 % 0 % 0 % 0 m²/s² 0 0 -0.3 3
16:00 486 J/kg -2.2 K 0 % 0 % 0 % 0 m²/s² 0 0 -0.52 3
17:00 633 J/kg -3.1 K 0 % 0 % 0 % 0 m²/s² 0 0 -1.48 3
18:00 334 J/kg -2.3 K 0 % 0 % 0 % 0 m²/s² 0 0 -0.44 3
19:00 41 J/kg -2.1 K 0 % 0 % 0 % 0 m²/s² 0 0 -0.12 3
20:00 40 J/kg -1.3 K 0 % 0 % 0 % 0 m²/s² 0 0 0.62 3
21:00 27 J/kg -1.3 K 0 % 0 % 0 % 0 m²/s² 0 0 0.56 3
22:00 0 J/kg -1.7 K 0 % 0 % 0 % 0 m²/s² 0 0 -0.02 80
23:00 13 J/kg -1.6 K 0 % 0 % 0 % 0 m²/s² 0 0 0.53 80
 05:04     21:07    Daglengte: 16:03 Zaterdag 22 Jun
00:00 2 J/kg -2.1 K 0 % 0 % 0 % 0 m²/s² 0 0 0.03 80
01:00 0 J/kg -1.4 K 0 % 0 % 0 % 0 m²/s² 0 0 0.85 80
02:00 0 J/kg -2.2 K 0 % 0 % 0 % 0 m²/s² 0 0 0.05 80
03:00 0 J/kg -2.3 K 0 % 0 % 0 % 0 m²/s² 0 0 -0.11 80
04:00 0 J/kg -2.0 K 0 % 0 % 0 % 0 m²/s² 0 0 -0.62 3
05:00 0 J/kg -2.3 K 0 % 0 % 0 % 0 m²/s² 0 0 -1.58 61
06:00 0 J/kg -2.0 K 0 % 0 % 0 % 0 m²/s² 0 0 -1.25 61
07:00 53 J/kg -2.0 K 0 % 0 % 0 % 0 m²/s² 0 0 -1.13 61
08:00 550 J/kg -3.0 K 0 % 0 % 0 % 0 m²/s² 0 0 -2.19 61
09:00 1218 J/kg -4.8 K 0 % 0 % 0 % 0 m²/s² 0 0 -4.14 61
10:00 1715 J/kg -5.9 K 0 % 0 % 0 % 0 m²/s² 0 0 -5.15 61
11:00 2153 J/kg -7.1 K 0 % 0 % 0 % 0 m²/s² 0 0 -5.99 61
12:00 2513 J/kg -7.9 K 0 % 0 % 0 % 0 m²/s² 0 0 -6.7 3
Temp Baro Wind Neerslag
  EWN Forecast EWN WRFDA DWD ICON FMI HIRLAM MET Norway GFS
 05:03     21:07    Daglengte: 16:04 Vandaag
14:00 29.0° 1011.1 hPa 1.4 m/s 0.0 mm 27.0° 1010.8 hPa 0.4 m/s 0.0 mm 29.4° 1011.0 hPa 1.0 m/s -2.0 mm 29.5° 1011.1 hPa 2.2 m/s 0.0 mm 26.9° 1012.0 hPa 1.2 m/s
17:00 28.8° 1010.0 hPa 2.3 m/s 0.0 mm 20.3° 1011.4 hPa 9.5 m/s 0.1 mm 29.7° 1009.5 hPa 2.3 m/s 0.0 mm 30.0° 1010.3 hPa 1.5 m/s 0.0 mm 25.3° 1011.4 hPa 3.8 m/s
20:00 26.5° 1009.8 hPa 1.1 m/s 0.0 mm 20.3° 1011.4 hPa 0.9 m/s 0.4 mm 26.6° 1009.4 hPa 0.7 m/s 0.0 mm 28.3° 1010.2 hPa 1.6 m/s 0.0 mm 18.4° 1011.7 hPa 3.1 m/s
23:00 21.9° 1011.0 hPa 2.1 m/s 0.0 mm 16.8° 1011.5 hPa 1.0 m/s 0.4 mm 21.5° 1010.9 hPa 1.1 m/s 0.0 mm 22.9° 1011.6 hPa 2.3 m/s 0.0 mm 14.5° 1012.7 hPa 1.3 m/s
 05:03     21:07    Daglengte: 16:04 Morgen
02:00 19.2° 1011.3 hPa 1.7 m/s 0.0 mm 14.7° 1011.3 hPa 1.8 m/s 0.4 mm 17.5° 1011.4 hPa 0.4 m/s 0.0 mm 19.7° 1011.7 hPa 1.7 m/s 0.0 mm 13.2° 1013.0 hPa 0.8 m/s
05:00 17.2° 1011.5 hPa 1.3 m/s 0.0 mm 14.2° 1010.9 hPa 1.3 m/s 0.4 mm 15.5° 1011.5 hPa 0.6 m/s 0.0 mm 17.4° 1012.7 hPa 1.3 m/s 0.0 mm 12.7° 1012.9 hPa 0.5 m/s
08:00 20.8° 1012.2 hPa 0.6 m/s 0.0 mm 19.1° 1011.6 hPa 0.8 m/s 0.4 mm 20.0° 1012.3 hPa 0.1 m/s 0.0 mm 21.0° 1012.4 hPa 0.6 m/s 0.0 mm 18.1° 1013.4 hPa 1.1 m/s
11:00 26.8° 1011.6 hPa 2.7 m/s 0.0 mm 24.7° 1011.5 hPa 1.8 m/s 0.4 mm 26.7° 1012.1 hPa 3.5 m/s 0.0 mm 27.2° 1011.5 hPa 1.7 m/s 0.0 mm 23.7° 1012.6 hPa 1.9 m/s
14:00 29.7° 1010.4 hPa 2.3 m/s 0.0 mm 27.5° 1010.5 hPa 3.2 m/s 0.4 mm 29.5° 1011.1 hPa 3.0 m/s 0.1 mm 30.6° 1010.2 hPa 1.0 m/s 0.0 mm 26.9° 1011.6 hPa 1.6 m/s
17:00 29.4° 1009.8 hPa 2.2 m/s 0.0 mm 28.2° 1009.7 hPa 1.7 m/s 0.4 mm 26.1° 1011.5 hPa 6.1 m/s 0.4 mm 32.1° 1008.8 hPa 1.6 m/s 0.0 mm 21.7° 1012.4 hPa 5.9 m/s
20:00 24.9° 1011.1 hPa 2.2 m/s 2.9 mm 23.7° 1011.5 hPa 5.4 m/s 0.8 mm 20.3° 1014.8 hPa 2.6 m/s 5.9 mm 29.1° 1009.6 hPa 1.9 m/s 0.0 mm 18.1° 1014.0 hPa 2.9 m/s
23:00 21.6° 1012.3 hPa 2.7 m/s 0.0 mm 17.6° 1013.4 hPa 3.5 m/s 13.1 mm 18.5° 1015.4 hPa 2.8 m/s 1.0 mm 23.3° 1011.6 hPa 1.0 m/s 0.0 mm 16.7° 1016.3 hPa 1.2 m/s
 05:03     21:07    Daglengte: 16:04 Vrijdag 21 Jun
02:00 20.0° 1013.7 hPa 1.7 m/s 1.8 mm 16.3° 1014.8 hPa 2.7 m/s 22.1 mm 17.7° 1016.4 hPa 1.8 m/s 1.0 mm 21.2° 1012.8 hPa 1.7 m/s 0.0 mm 15.7° 1016.7 hPa 0.9 m/s
05:00 18.9° 1014.6 hPa 1.9 m/s 0.0 mm 16.1° 1015.1 hPa 1.6 m/s 22.1 mm 17.1° 1016.8 hPa 1.8 m/s 0.0 mm 20.8° 1013.2 hPa 1.7 m/s 0.0 mm 14.2° 1017.0 hPa 0.7 m/s
08:00 19.1° 1015.8 hPa 3.0 m/s 0.0 mm 18.2° 1015.8 hPa 1.9 m/s 22.1 mm 19.0° 1017.4 hPa 2.4 m/s 0.0 mm 20.7° 1014.4 hPa 3.1 m/s 0.0 mm 17.9° 1017.5 hPa 0.4 m/s
11:00 21.7° 1017.0 hPa 2.9 m/s 4.3 mm 22.5° 1016.2 hPa 2.1 m/s 22.1 mm 22.6° 1017.1 hPa 2.8 m/s 0.0 mm 19.5° 1017.5 hPa 0.9 m/s
14:00 24.0° 1016.2 hPa 2.4 m/s 6.4 mm 25.0° 1014.4 hPa 0.8 m/s 22.1 mm 25.4° 1016.1 hPa 2.4 m/s 0.0 mm 24.3° 1016.3 hPa 1.2 m/s
17:00 25.0° 1015.5 hPa 1.8 m/s 0.0 mm 26.1° 1014.3 hPa 1.9 m/s 22.1 mm 25.6° 1015.4 hPa 1.8 m/s 0.0 mm 24.6° 1015.8 hPa 0.8 m/s
20:00 21.8° 1016.0 hPa 1.9 m/s 0.0 mm 21.4° 1013.8 hPa 1.6 m/s 22.5 mm 23.4° 1016.0 hPa 1.9 m/s 0.0 mm 21.0° 1016.0 hPa 1.9 m/s
23:00 19.3° 1017.5 hPa 2.0 m/s 5.3 mm 17.8° 1014.6 hPa 2.4 m/s 22.5 mm 19.6° 1017.9 hPa 0.7 m/s 0.4 mm 17.1° 1017.3 hPa 1.6 m/s
 05:04     21:07    Daglengte: 16:03 Zaterdag 22 Jun
02:00 17.8° 1017.4 hPa 2.2 m/s 8.1 mm 17.1° 1013.9 hPa 3.4 m/s 22.5 mm 17.8° 1018.5 hPa 0.4 m/s 0.8 mm 16.0° 1017.1 hPa 1.8 m/s
05:00 17.0° 1017.4 hPa 2.1 m/s 2.8 mm 16.0° 1013.2 hPa 3.4 m/s 22.5 mm 17.1° 1018.6 hPa 0.4 m/s 0.5 mm 16.3° 1016.3 hPa 1.5 m/s
08:00 18.7° 1018.3 hPa 3.7 m/s 5.2 mm 21.1° 1012.3 hPa 6.1 m/s 22.5 mm 18.5° 1019.4 hPa 1.1 m/s 0.3 mm 17.5° 1016.2 hPa 1.9 m/s
11:00 20.6° 1017.6 hPa 3.5 m/s 5.8 mm 25.4° 1012.3 hPa 4.9 m/s 22.5 mm 19.4° 1018.9 hPa 3.2 m/s 1.2 mm 21.0° 1015.6 hPa 4.4 m/s
14:00 23.5° 1016.3 hPa 5.7 m/s 7.6 mm 27.6° 1011.0 hPa 5.5 m/s 22.5 mm 22.5° 1017.7 hPa 5.7 m/s 0.1 mm 22.8° 1014.5 hPa 5.0 m/s
17:00 22.2° 1013.7 hPa 4.0 m/s 20.5 mm 22.2° 1013.7 hPa 4.0 m/s 20.5 mm
20:00 18.8° 1014.2 hPa 3.1 m/s 27.8 mm 18.8° 1014.2 hPa 3.1 m/s 27.8 mm
23:00 17.8° 1015.6 hPa 2.0 m/s 31.9 mm 17.8° 1015.6 hPa 2.0 m/s 31.9 mm
 05:04     21:07    Daglengte: 16:03 Zondag 23 Jun
02:00 17.0° 1015.7 hPa 0.7 m/s 39.6 mm 17.0° 1015.7 hPa 0.7 m/s 39.6 mm
05:00 16.5° 1015.9 hPa 2.1 m/s 51.9 mm 16.5° 1015.9 hPa 2.1 m/s 51.9 mm
08:00 16.1° 1017.1 hPa 2.6 m/s 58.3 mm 16.1° 1017.1 hPa 2.6 m/s 58.3 mm
11:00 16.3° 1018.0 hPa 2.6 m/s 60.9 mm 16.3° 1018.0 hPa 2.6 m/s 60.9 mm
14:00 17.2° 1018.4 hPa 1.4 m/s 63.4 mm 17.2° 1018.4 hPa 1.4 m/s 63.4 mm
17:00 19.0° 1018.4 hPa 0.8 m/s 63.8 mm 19.0° 1018.4 hPa 0.8 m/s 63.8 mm
20:00 18.5° 1019.6 hPa 1.7 m/s 64.2 mm 18.5° 1019.6 hPa 1.7 m/s 64.2 mm
23:00 15.1° 1021.9 hPa 0.8 m/s 64.2 mm 15.1° 1021.9 hPa 0.8 m/s 64.2 mm
 05:04     21:08    Daglengte: 16:04 Maandag 24 Jun
02:00 15.1° 1022.5 hPa 1.9 m/s 64.2 mm 15.1° 1022.5 hPa 1.9 m/s 64.2 mm
05:00 13.6° 1022.7 hPa 0.5 m/s 64.2 mm 13.6° 1022.7 hPa 0.5 m/s 64.2 mm
08:00 17.7° 1023.5 hPa 0.5 m/s 64.2 mm 17.7° 1023.5 hPa 0.5 m/s 64.2 mm
11:00 22.3° 1023.2 hPa 2.0 m/s 64.2 mm 22.3° 1023.2 hPa 2.0 m/s 64.2 mm
14:00 25.2° 1022.4 hPa 1.8 m/s 64.2 mm 25.2° 1022.4 hPa 1.8 m/s 64.2 mm
17:00 26.2° 1022.2 hPa 1.8 m/s 64.2 mm 26.2° 1022.2 hPa 1.8 m/s 64.2 mm
20:00 22.7° 1023.1 hPa 2.1 m/s 64.2 mm 22.7° 1023.1 hPa 2.1 m/s 64.2 mm
23:00 18.2° 1025.3 hPa 2.6 m/s 64.2 mm 18.2° 1025.3 hPa 2.6 m/s 64.2 mm
 05:05     21:08    Daglengte: 16:03 Dinsdag 25 Jun
02:00 17.0° 1025.4 hPa 2.4 m/s 64.2 mm 17.0° 1025.4 hPa 2.4 m/s 64.2 mm
05:00 15.4° 1025.0 hPa 2.8 m/s 64.2 mm 15.4° 1025.0 hPa 2.8 m/s 64.2 mm
08:00 18.7° 1024.9 hPa 3.3 m/s 64.2 mm 18.7° 1024.9 hPa 3.3 m/s 64.2 mm
11:00 23.4° 1024.3 hPa 3.9 m/s 64.2 mm 23.4° 1024.3 hPa 3.9 m/s 64.2 mm
14:00 26.1° 1023.2 hPa 4.4 m/s 64.2 mm 26.1° 1023.2 hPa 4.4 m/s 64.2 mm
17:00 26.2° 1022.6 hPa 4.7 m/s 64.2 mm 26.2° 1022.6 hPa 4.7 m/s 64.2 mm
20:00 21.9° 1023.3 hPa 3.9 m/s 64.2 mm 21.9° 1023.3 hPa 3.9 m/s 64.2 mm
23:00 17.9° 1025.2 hPa 3.1 m/s 64.2 mm 17.9° 1025.2 hPa 3.1 m/s 64.2 mm
 05:05     21:08    Daglengte: 16:03 Woensdag 26 Jun
02:00 16.8° 1024.7 hPa 2.7 m/s 64.2 mm 16.8° 1024.7 hPa 2.7 m/s 64.2 mm
05:00 15.8° 1024.0 hPa 2.7 m/s 64.2 mm 15.8° 1024.0 hPa 2.7 m/s 64.2 mm
08:00 19.6° 1023.6 hPa 3.1 m/s 64.2 mm 19.6° 1023.6 hPa 3.1 m/s 64.2 mm
11:00 24.9° 1022.6 hPa 3.6 m/s 64.2 mm 24.9° 1022.6 hPa 3.6 m/s 64.2 mm
14:00 28.3° 1021.3 hPa 4.2 m/s 64.2 mm 28.3° 1021.3 hPa 4.2 m/s 64.2 mm
20:00 24.1° 1020.8 hPa 3.5 m/s 64.2 mm 24.1° 1020.8 hPa 3.5 m/s 64.2 mm
 05:06     21:08    Daglengte: 16:02 Donderdag 27 Jun
02:00 19.2° 1021.8 hPa 3.1 m/s 64.2 mm 19.2° 1021.8 hPa 3.1 m/s 64.2 mm
08:00 21.9° 1020.2 hPa 3.7 m/s 64.2 mm 21.9° 1020.2 hPa 3.7 m/s 64.2 mm
14:00 31.4° 1017.8 hPa 4.2 m/s 64.2 mm 31.4° 1017.8 hPa 4.2 m/s 64.2 mm
20:00 27.2° 1016.3 hPa 2.8 m/s 64.2 mm 27.2° 1016.3 hPa 2.8 m/s 64.2 mm
 05:06     21:07    Daglengte: 16:01 Vrijdag 28 Jun
02:00 20.2° 1017.4 hPa 1.6 m/s 64.2 mm 20.2° 1017.4 hPa 1.6 m/s 64.2 mm
08:00 22.9° 1017.0 hPa 0.4 m/s 64.2 mm 22.9° 1017.0 hPa 0.4 m/s 64.2 mm
14:00 31.4° 1015.8 hPa 2.7 m/s 64.2 mm 31.4° 1015.8 hPa 2.7 m/s 64.2 mm
20:00 28.3° 1015.8 hPa 1.7 m/s 64.2 mm 28.3° 1015.8 hPa 1.7 m/s 64.2 mm
 05:07     21:07    Daglengte: 16:00 Zaterdag 29 Jun
02:00 22.6° 1018.3 hPa 1.7 m/s 66.3 mm 22.6° 1018.3 hPa 1.7 m/s 66.3 mm
08:00 21.8° 1014.3 hPa 0.3 m/s 0.5 mm
14:00 28.6° 1012.9 hPa 1.4 m/s 0.4 mm
20:00 25.1° 1012.9 hPa 0.9 m/s 0.5 mm
 05:07     21:07    Daglengte: 16:00 Zondag 30 Jun
02:00 17.3° 1014.3 hPa 0.5 m/s 0.2 mm
08:00 20.7° 1014.3 hPa 0.3 m/s 0.4 mm
14:00 27.5° 1012.8 hPa 0.5 m/s 0.8 mm
20:00 23.5° 1012.8 hPa 0.5 m/s 2.3 mm
 05:08     21:07    Daglengte: 15:59 Maandag 01 Jul
02:00 17.4° 1014.2 hPa 1.4 m/s 1.6 mm
08:00 19.7° 1014.3 hPa 1.3 m/s 1.4 mm
14:00 25.8° 1012.8 hPa 2.0 m/s 1.3 mm
20:00 22.1° 1012.9 hPa 1.2 m/s 1.6 mm
 05:08     21:07    Daglengte: 15:59 Dinsdag 02 Jul
02:00 15.7° 1014.5 hPa 1.5 m/s 2.0 mm
08:00 18.4° 1014.8 hPa 1.8 m/s 1.6 mm
14:00 24.6° 1013.5 hPa 2.2 m/s 0.8 mm
20:00 21.4° 1013.6 hPa 1.2 m/s 1.3 mm
 05:09     21:06    Daglengte: 15:57 Woensdag 03 Jul
02:00 14.5° 1015.3 hPa 1.6 m/s 0.5 mm
08:00 17.1° 1015.9 hPa 1.6 m/s 0.6 mm
14:00 22.5° 1015.3 hPa 1.9 m/s 1.6 mm
20:00 19.9° 1015.5 hPa 1.0 m/s 1.8 mm
 05:10     21:06    Daglengte: 15:56 Donderdag 04 Jul
02:00 13.4° 1016.9 hPa 0.9 m/s 1.5 mm
08:00 16.9° 1017.0 hPa 1.0 m/s 2.8 mm
FMI Hirlam - 7.5 km EWN WRFDA - 12 km DWD ICON - 7 km GFS - 25 km Basiskaart






























































Updatetijd (Europe/Amsterdam) Resolutie Lengte Stap
FMI Hirlam 07:00, 13:00, 19:00, 01:00 7.5 km 49h 1h
EWN WRFDA 10:15, 16:15, 22:15, 04:15 12 km 73h 1h
DWD ICON 11:45, 17:45, 23:45, 05:45 7 km 75h 1h
GFS 08:45, 14:45, 20:45, 02:45 25 km 237h 3h
30+ mm
25-30 mm
20-25 mm
15-20 mm
10-15 mm
6-10 mm
4-6 mm
2-4 mm
1-2 mm
0.5-1 mm
0.2-0.5 mm
0.1-0.2 mm
30+ mm
25-30 mm
20-25 mm
15-20 mm
10-15 mm
6-10 mm
4-6 mm
2-4 mm
1-2 mm
0.5-1 mm
0.2-0.5 mm
0.1-0.2 mm
Sneeuwval
Natte sneeuw
Hagel
Vorst
30+ mm
25-30 mm
20-25 mm
15-20 mm
10-15 mm
6-10 mm
4-6 mm
2-4 mm
1-2 mm
0.5-1 mm
0.2-0.5 mm
0.1-0.2 mm
Sneeuwval
Natte sneeuw
Hagel
Vorst
Onweer
50 mm
40 mm
30 mm
26 mm
22 mm
18 mm
14 mm
10 mm
9 mm
8 mm
7 mm
6 mm
5 mm
4.5 mm
4 mm
3.5 mm
3 mm
2.5 mm
2 mm
1.5 mm
1 mm
0.8 mm
0.6 mm
0.4 mm
0.2 mm
0.05 mm
35°
30°
25°
20°
15°
10°
-5°
-10°
-15°
-20°
-25°
-30°
-35°
33> m/s
29 m/s
25 m/s
21 m/s
17 m/s
14 m/s
11 m/s
8 m/s
5 m/s
3 m/s
0 m/s
2600 J/kg
2400 J/kg
2200 J/kg
2000 J/kg
1800 J/kg
1600 J/kg
1400 J/kg
1200 J/kg
1000 J/kg
800 J/kg
600 J/kg
400 J/kg
200 J/kg
70 dBZ
65 dBZ
60 dBZ
55 dBZ
50 dBZ
45 dBZ
40 dBZ
35 dBZ
30 dBZ
25 dBZ
20 dBZ
15 dBZ
10 dBZ
5 dBZ
-1 K
-2 K
-3 K
-4 K
-5 K
-6 K
-7 K
-8 K
-9 K
950 m²/s²
900 m²/s²
850 m²/s²
800 m²/s²
750 m²/s²
700 m²/s²
650 m²/s²
600 m²/s²
550 m²/s²
500 m²/s²
450 m²/s²
400 m²/s²
350 m²/s²
300 m²/s²
250 m²/s²
200 m²/s²
150 m²/s²
100 m²/s²
46 m/s
44 m/s
42 m/s
40 m/s
38 m/s
36 m/s
34 m/s
32 m/s
30 m/s
28 m/s
26 m/s
24 m/s
22 m/s
20 m/s
16 m/s
12 m/s
8 m/s
4 m/s
30 m/s
28 m/s
26 m/s
24 m/s
22 m/s
20 m/s
18 m/s
16 m/s
14 m/s
12 m/s
10 m/s
8 m/s
6 m/s
4 m/s
2 m/s
3.0
2.8
2.6
2.4
2.2
2.0
1.8
1.6
1.4
1.2
1.0
0.8
0.6
0.4
0.2
15
14
13
12
11
10
9
8
7
6
5
4
3
2
1
90%
80%
70%
60%
50%
40%
30%
20%
10%
42
40
38
36